Orbital Elements at Epoch 2459000.5 (2020-May-31.0) TDB
Reference: JPL 20 (heliocentric ecliptic J2000)
Element | Value | Uncertainty (1-sigma) | Units |
e | .01201170398284279 | 4.4911e-08 | |
a | 2.721022623911343 | 1.7987e-08 | au |
q | 2.688338505622302 | 1.1391e-07 | au |
i | 4.48567099643347 | 3.7914e-06 | deg |
node | 238.9253776266123 | 5.3846e-05 | deg |
peri | 254.0232577799934 | 0.00020517 | deg |
M | 164.5611151831892 | 0.00020037 | deg |
tp | 2458251.086733407063 (2018-May-12.58673341) | 0.00090885 | TDB |
period | 1639.444261623585 4.49 | 1.6256e-05 4.451e-08 | d yr |
n | .2195866053070218 | 2.1774e-09 | deg/d |
Q | 2.753706742200384 | 1.8204e-08 | au |
|
| | Orbit Determination Parameters
Additional Information
|